Location: Unspecified
(0.0000°N, 0.0000°E)
Time: 13:21:10
(UTC+00:00)

LightSail 2 - Pass Details

Date: 15 September 2019
Orbit: 699 x 732 km, 24.0° (Epoch: 17 September)

Event Time Altitude Azimuth Distance (km) Brightness Sun altitude
Exits shadow 03:26:36 21° 75° (ENE) 1,533 7.4 -37.1°
Drops below altitude 10° 03:28:18 10° 71° (ENE) 2,151 8.3 -36.7°
Sets 03:30:45 0° 69° (ENE) 3,071 9.3 -36.1°
